{"data":{"norad_id":50820,"intl_designator":"2022-001T","name":"STARLINK-3339","alt_names":[],"object_type":"PAYLOAD","status":"ACTIVE","operator":null,"country":"US","launch_date":"2022-01-06","launch_site_code":"AFETR","launch_vehicle":null,"mission":null,"orbit_class":"UNKNOWN","rcs_meters":null,"size_class":null,"mass_kg":null,"dimensions":null,"purposes":["comms"],"wikipedia_slug":null,"has_3d_model":false,"image_url":null,"decayed_at":null,"tle_current":{"epoch":"2026-05-24T09:31:17.964480Z","epoch_age_seconds":137340,"freshness":"FRESH","line1":"1 50820U 22001T   26144.39673570  .00001063  00000+0  84864-4 0  9990","line2":"2 50820  53.2163 189.2578 0001430  78.4936 281.6216 15.08843134241833","mean_motion":15.08843134,"eccentricity":0.000143,"inclination_deg":53.2163,"raan_deg":189.2578,"arg_perigee_deg":78.4936,"mean_anomaly_deg":281.6216,"bstar":8.4864e-5,"rev_number":24183,"period_min":95.437356445564,"perigee_km":538.74455407069,"apogee_km":540.72306512223,"semimajor_km":6917.8708095965,"source":"CELESTRAK","updated_at":"2026-05-25T13:38:16.877370Z"}}}